Year,Month,Day,Hour,Minute,Value (Times are PST for temperature in C)
2015,08,22,00,00,13.70
2015,08,22,00,01,13.70
2015,08,22,00,02,13.70
2015,08,22,00,03,13.70
2015,08,22,00,04,13.70
2015,08,22,00,05,13.70
2015,08,22,00,06,13.60
2015,08,22,00,07,13.60
2015,08,22,00,08,13.60
2015,08,22,00,09,13.60
2015,08,22,00,10,13.60
2015,08,22,00,11,13.50
2015,08,22,00,12,13.50
2015,08,22,00,13,13.50
2015,08,22,00,14,13.50
2015,08,22,00,15,13.50
2015,08,22,00,16,13.50
2015,08,22,00,17,13.40
2015,08,22,00,18,13.40
2015,08,22,00,19,13.40
2015,08,22,00,20,13.40
2015,08,22,00,21,13.40
2015,08,22,00,22,13.40
2015,08,22,00,23,13.40
2015,08,22,00,24,13.30
2015,08,22,00,25,13.30
2015,08,22,00,26,13.30
2015,08,22,00,27,13.30
2015,08,22,00,28,13.30
2015,08,22,00,29,13.30
2015,08,22,00,30,13.30
2015,08,22,00,31,13.30
2015,08,22,00,32,13.30
2015,08,22,00,33,13.30
2015,08,22,00,34,13.30
2015,08,22,00,35,13.30
2015,08,22,00,36,13.30
2015,08,22,00,37,13.30
2015,08,22,00,38,13.30
2015,08,22,00,39,13.30
2015,08,22,00,40,13.30
2015,08,22,00,41,13.30
2015,08,22,00,42,13.30
2015,08,22,00,43,13.30
2015,08,22,00,44,13.30
2015,08,22,00,45,13.30
2015,08,22,00,46,13.20
2015,08,22,00,47,13.20
2015,08,22,00,48,13.20
2015,08,22,00,49,13.20
2015,08,22,00,50,13.20
2015,08,22,00,51,13.10
2015,08,22,00,52,13.10
2015,08,22,00,53,13.10
2015,08,22,00,54,13.10
2015,08,22,00,55,13.10
2015,08,22,00,56,13.10
2015,08,22,00,57,13.10
2015,08,22,00,58,13.10
2015,08,22,00,59,13.10
2015,08,22,01,00,13.10
2015,08,22,01,01,13.10
2015,08,22,01,02,13.10
2015,08,22,01,03,13.10
2015,08,22,01,04,13.10
2015,08,22,01,05,13.10
2015,08,22,01,06,13.10
2015,08,22,01,07,13.00
2015,08,22,01,08,13.00
2015,08,22,01,09,13.00
2015,08,22,01,10,13.00
2015,08,22,01,11,12.90
2015,08,22,01,12,12.90
2015,08,22,01,13,12.90
2015,08,22,01,14,12.90
2015,08,22,01,15,12.80
2015,08,22,01,16,12.80
2015,08,22,01,17,12.80
2015,08,22,01,18,12.80
2015,08,22,01,19,12.80
2015,08,22,01,20,12.80
2015,08,22,01,21,12.80
2015,08,22,01,22,12.80
2015,08,22,01,23,12.80
2015,08,22,01,24,12.70
2015,08,22,01,25,12.70
2015,08,22,01,26,12.70
2015,08,22,01,27,12.60
2015,08,22,01,28,12.60
2015,08,22,01,29,12.60
2015,08,22,01,30,12.60
2015,08,22,01,31,12.60
2015,08,22,01,32,12.60
2015,08,22,01,33,12.50
2015,08,22,01,34,12.50
2015,08,22,01,35,12.50
2015,08,22,01,36,12.50
2015,08,22,01,37,12.40
2015,08,22,01,38,12.40
2015,08,22,01,39,12.40
2015,08,22,01,40,12.40
2015,08,22,01,41,12.40
2015,08,22,01,42,12.40
2015,08,22,01,43,12.30
2015,08,22,01,44,12.30
2015,08,22,01,45,12.30
2015,08,22,01,46,12.30
2015,08,22,01,47,12.30
2015,08,22,01,48,12.30
2015,08,22,01,49,12.30
2015,08,22,01,50,12.30
2015,08,22,01,51,12.30
2015,08,22,01,52,12.30
2015,08,22,01,53,12.30
2015,08,22,01,54,12.30
2015,08,22,01,55,12.30
2015,08,22,01,56,12.30
2015,08,22,01,57,12.30
2015,08,22,01,58,12.30
2015,08,22,01,59,12.30
2015,08,22,02,00,12.30
2015,08,22,02,01,12.30
2015,08,22,02,02,12.30
2015,08,22,02,03,12.30
2015,08,22,02,04,12.30
2015,08,22,02,05,12.30
2015,08,22,02,06,12.30
2015,08,22,02,07,12.30
2015,08,22,02,08,12.30
2015,08,22,02,09,12.30
2015,08,22,02,10,12.30
2015,08,22,02,11,12.20
2015,08,22,02,12,12.20
2015,08,22,02,13,12.20
2015,08,22,02,14,12.20
2015,08,22,02,15,12.20
2015,08,22,02,16,12.10
2015,08,22,02,17,12.10
2015,08,22,02,18,12.10
2015,08,22,02,19,12.10
2015,08,22,02,20,12.00
2015,08,22,02,21,12.00
2015,08,22,02,22,12.00
2015,08,22,02,23,12.00
2015,08,22,02,24,12.00
2015,08,22,02,25,12.00
2015,08,22,02,26,11.90
2015,08,22,02,27,11.90
2015,08,22,02,28,11.90
2015,08,22,02,29,11.90
2015,08,22,02,30,11.90
2015,08,22,02,31,11.90
2015,08,22,02,32,11.80
2015,08,22,02,33,11.80
2015,08,22,02,34,11.80
2015,08,22,02,35,11.80
2015,08,22,02,36,11.80
2015,08,22,02,37,11.80
2015,08,22,02,38,11.70
2015,08,22,02,39,11.70
2015,08,22,02,40,11.70
2015,08,22,02,41,11.70
2015,08,22,02,42,11.60
2015,08,22,02,43,11.60
2015,08,22,02,44,11.60
2015,08,22,02,45,11.60
2015,08,22,02,46,11.60
2015,08,22,02,47,11.60
2015,08,22,02,48,11.60
2015,08,22,02,49,11.60
2015,08,22,02,50,11.50
2015,08,22,02,51,11.40
2015,08,22,02,52,11.40
2015,08,22,02,53,11.40
2015,08,22,02,54,11.40
2015,08,22,02,55,11.40
2015,08,22,02,56,11.40
2015,08,22,02,57,11.40
2015,08,22,02,58,11.40
2015,08,22,02,59,11.40
2015,08,22,03,00,11.40
2015,08,22,03,01,11.40
2015,08,22,03,02,11.60
2015,08,22,03,03,11.60
2015,08,22,03,04,11.60
2015,08,22,03,05,11.60
2015,08,22,03,06,11.60
2015,08,22,03,07,11.60
2015,08,22,03,08,11.60
2015,08,22,03,09,11.60
2015,08,22,03,10,11.60
2015,08,22,03,11,11.60
2015,08,22,03,12,11.60
2015,08,22,03,13,11.60
2015,08,22,03,14,11.60
2015,08,22,03,15,11.60
2015,08,22,03,16,11.60
2015,08,22,03,17,11.60
2015,08,22,03,18,11.60
2015,08,22,03,19,11.60
2015,08,22,03,20,11.60
2015,08,22,03,21,11.60
2015,08,22,03,22,11.60
2015,08,22,03,23,11.60
2015,08,22,03,24,11.60
2015,08,22,03,25,11.60
2015,08,22,03,26,11.60
2015,08,22,03,27,11.60
2015,08,22,03,28,11.60
2015,08,22,03,29,11.60
2015,08,22,03,30,11.60
2015,08,22,03,31,11.60
2015,08,22,03,32,11.60
2015,08,22,03,33,11.60
2015,08,22,03,34,11.60
2015,08,22,03,35,11.60
2015,08,22,03,36,11.60
2015,08,22,03,37,11.60
2015,08,22,03,38,11.60
2015,08,22,03,39,11.60
2015,08,22,03,40,11.60
2015,08,22,03,41,11.60
2015,08,22,03,42,11.60
2015,08,22,03,43,11.60
2015,08,22,03,44,11.60
2015,08,22,03,45,11.70
2015,08,22,03,46,11.70
2015,08,22,03,47,11.80
2015,08,22,03,48,11.80
2015,08,22,03,49,11.80
2015,08,22,03,50,11.80
2015,08,22,03,51,11.80
2015,08,22,03,52,11.80
2015,08,22,03,53,11.80
2015,08,22,03,54,11.80
2015,08,22,03,55,11.80
2015,08,22,03,56,11.80
2015,08,22,03,57,11.80
2015,08,22,03,58,11.70
2015,08,22,03,59,11.70
2015,08,22,04,00,11.70
2015,08,22,04,01,11.70
2015,08,22,04,02,11.60
2015,08,22,04,03,11.60
2015,08,22,04,04,11.60
2015,08,22,04,05,11.60
2015,08,22,04,06,11.60
2015,08,22,04,07,11.60
2015,08,22,04,08,11.60
2015,08,22,04,09,11.60
2015,08,22,04,10,11.60
2015,08,22,04,11,11.60
2015,08,22,04,12,11.60
2015,08,22,04,13,11.60
2015,08,22,04,14,11.60
2015,08,22,04,15,11.60
2015,08,22,04,16,11.60
2015,08,22,04,17,11.60
2015,08,22,04,18,11.60
2015,08,22,04,19,11.70
2015,08,22,04,20,11.70
2015,08,22,04,21,11.70
2015,08,22,04,22,11.70
2015,08,22,04,23,11.60
2015,08,22,04,24,11.60
2015,08,22,04,25,11.60
2015,08,22,04,26,11.60
2015,08,22,04,27,11.60
2015,08,22,04,28,11.60
2015,08,22,04,29,11.60
2015,08,22,04,30,11.60
2015,08,22,04,31,11.60
2015,08,22,04,32,11.60
2015,08,22,04,33,11.60
2015,08,22,04,34,11.60
2015,08,22,04,35,11.70
2015,08,22,04,36,11.70
2015,08,22,04,37,11.70
2015,08,22,04,38,11.70
2015,08,22,04,39,11.70
2015,08,22,04,40,11.70
2015,08,22,04,41,11.70
2015,08,22,04,42,11.60
2015,08,22,04,43,11.60
2015,08,22,04,44,11.60
2015,08,22,04,45,11.60
2015,08,22,04,46,11.60
2015,08,22,04,47,11.60
2015,08,22,04,48,11.60
2015,08,22,04,49,11.60
2015,08,22,04,50,11.60
2015,08,22,04,51,11.60
2015,08,22,04,52,11.60
2015,08,22,04,53,11.60
2015,08,22,04,54,11.60
2015,08,22,04,55,11.60
2015,08,22,04,56,11.60
2015,08,22,04,57,11.60
2015,08,22,04,58,11.70
2015,08,22,04,59,11.70
2015,08,22,05,00,11.70
2015,08,22,05,01,11.70
2015,08,22,05,02,11.80
2015,08,22,05,03,11.70
2015,08,22,05,04,11.70
2015,08,22,05,05,11.70
2015,08,22,05,06,11.70
2015,08,22,05,07,11.70
2015,08,22,05,08,11.60
2015,08,22,05,09,11.60
2015,08,22,05,10,11.60
2015,08,22,05,11,11.60
2015,08,22,05,12,11.60
2015,08,22,05,13,11.50
2015,08,22,05,14,11.40
2015,08,22,05,15,11.40
2015,08,22,05,16,11.40
2015,08,22,05,17,11.40
2015,08,22,05,18,11.40
2015,08,22,05,19,11.40
2015,08,22,05,20,11.40
2015,08,22,05,21,11.40
2015,08,22,05,22,11.30
2015,08,22,05,23,11.30
2015,08,22,05,24,11.30
2015,08,22,05,25,11.30
2015,08,22,05,26,11.20
2015,08,22,05,27,11.20
2015,08,22,05,28,11.20
2015,08,22,05,29,11.20
2015,08,22,05,30,11.20
2015,08,22,05,31,11.10
2015,08,22,05,32,11.10
2015,08,22,05,33,11.10
2015,08,22,05,34,11.10
2015,08,22,05,35,11.10
2015,08,22,05,36,11.10
2015,08,22,05,37,11.00
2015,08,22,05,38,10.90
2015,08,22,05,39,10.90
2015,08,22,05,40,10.90
2015,08,22,05,41,10.90
2015,08,22,05,42,10.90
2015,08,22,05,43,10.90
2015,08,22,05,44,10.90
2015,08,22,05,45,10.90
2015,08,22,05,46,10.80
2015,08,22,05,47,10.80
2015,08,22,05,48,10.80
2015,08,22,05,49,10.80
2015,08,22,05,50,10.80
2015,08,22,05,51,10.70
2015,08,22,05,52,10.70
2015,08,22,05,53,10.70
2015,08,22,05,54,10.70
2015,08,22,05,55,10.60
2015,08,22,05,56,10.60
2015,08,22,05,57,10.60
2015,08,22,05,58,10.60
2015,08,22,05,59,10.60
2015,08,22,06,00,10.60
2015,08,22,06,01,10.60
2015,08,22,06,02,10.60
2015,08,22,06,03,10.60
2015,08,22,06,04,10.60
2015,08,22,06,05,10.60
2015,08,22,06,06,10.60
2015,08,22,06,07,10.60
2015,08,22,06,08,10.50
2015,08,22,06,09,10.40
2015,08,22,06,10,10.40
2015,08,22,06,11,10.40
2015,08,22,06,12,10.40
2015,08,22,06,13,10.40
2015,08,22,06,14,10.40
2015,08,22,06,15,10.40
2015,08,22,06,16,10.40
2015,08,22,06,17,10.40
2015,08,22,06,18,10.40
2015,08,22,06,19,10.40
2015,08,22,06,20,10.40
2015,08,22,06,21,10.40
2015,08,22,06,22,10.40
2015,08,22,06,23,10.40
2015,08,22,06,24,10.40
2015,08,22,06,25,10.40
2015,08,22,06,26,10.40
2015,08,22,06,27,10.40
2015,08,22,06,28,10.40
2015,08,22,06,29,10.40
2015,08,22,06,30,10.40
2015,08,22,06,31,10.40
2015,08,22,06,32,10.40
2015,08,22,06,33,10.40
2015,08,22,06,34,10.40
2015,08,22,06,35,10.40
2015,08,22,06,36,10.40
2015,08,22,06,37,10.50
2015,08,22,06,38,10.60
2015,08,22,06,39,10.60
2015,08,22,06,40,10.60
2015,08,22,06,41,10.60
2015,08,22,06,42,10.60
2015,08,22,06,43,10.60
2015,08,22,06,44,10.60
2015,08,22,06,45,10.60
2015,08,22,06,46,10.60
2015,08,22,06,47,10.60
2015,08,22,06,48,10.60
2015,08,22,06,49,10.60
2015,08,22,06,50,10.60
2015,08,22,06,51,10.70
2015,08,22,06,52,10.80
2015,08,22,06,53,10.90
2015,08,22,06,54,10.90
2015,08,22,06,55,10.90
2015,08,22,06,56,11.00
2015,08,22,06,57,11.10
2015,08,22,06,58,11.10
2015,08,22,06,59,11.10
2015,08,22,07,00,11.20
2015,08,22,07,01,11.20
2015,08,22,07,02,11.30
2015,08,22,07,03,11.40
2015,08,22,07,04,11.50
2015,08,22,07,05,11.60
2015,08,22,07,06,11.60
2015,08,22,07,07,11.70
2015,08,22,07,08,11.80
2015,08,22,07,09,11.80
2015,08,22,07,10,11.80
2015,08,22,07,11,11.90
2015,08,22,07,12,11.90
2015,08,22,07,13,12.00
2015,08,22,07,14,12.00
2015,08,22,07,15,12.10
2015,08,22,07,16,12.10
2015,08,22,07,17,12.20
2015,08,22,07,18,12.30
2015,08,22,07,19,12.40
2015,08,22,07,20,12.50
2015,08,22,07,21,12.60
2015,08,22,07,22,12.70
2015,08,22,07,23,12.80
2015,08,22,07,24,12.90
2015,08,22,07,25,12.90
2015,08,22,07,26,13.00
2015,08,22,07,27,13.10
2015,08,22,07,28,13.20
2015,08,22,07,29,13.20
2015,08,22,07,30,13.30
2015,08,22,07,31,13.30
2015,08,22,07,32,13.30
2015,08,22,07,33,13.40
2015,08,22,07,34,13.50
2015,08,22,07,35,13.60
2015,08,22,07,36,13.60
2015,08,22,07,37,13.70
2015,08,22,07,38,13.90
2015,08,22,07,39,14.00
2015,08,22,07,40,14.20
2015,08,22,07,41,14.30
2015,08,22,07,42,14.40
2015,08,22,07,43,14.50
2015,08,22,07,44,14.70
2015,08,22,07,45,14.80
2015,08,22,07,46,14.90
2015,08,22,07,47,15.00
2015,08,22,07,48,15.10
2015,08,22,07,49,15.10
2015,08,22,07,50,15.20
2015,08,22,07,51,15.30
2015,08,22,07,52,15.30
2015,08,22,07,53,15.30
2015,08,22,07,54,15.40
2015,08,22,07,55,15.40
2015,08,22,07,56,15.50
2015,08,22,07,57,15.60
2015,08,22,07,58,15.70
2015,08,22,07,59,15.80
2015,08,22,08,00,15.90
2015,08,22,08,01,16.10
2015,08,22,08,02,16.10
2015,08,22,08,03,16.20
2015,08,22,08,04,16.30
2015,08,22,08,05,16.40
2015,08,22,08,06,16.50
2015,08,22,08,07,16.70
2015,08,22,08,08,16.80
2015,08,22,08,09,16.90
2015,08,22,08,10,17.00
2015,08,22,08,11,17.00
2015,08,22,08,12,17.10
2015,08,22,08,13,17.10
2015,08,22,08,14,17.20
2015,08,22,08,15,17.30
2015,08,22,08,16,17.30
2015,08,22,08,17,17.30
2015,08,22,08,18,17.30
2015,08,22,08,19,17.40
2015,08,22,08,20,17.40
2015,08,22,08,21,17.50
2015,08,22,08,22,17.50
2015,08,22,08,23,17.60
2015,08,22,08,24,17.80
2015,08,22,08,25,17.90
2015,08,22,08,26,17.90
2015,08,22,08,27,17.90
2015,08,22,08,28,18.00
2015,08,22,08,29,18.10
2015,08,22,08,30,18.20
2015,08,22,08,31,18.30
2015,08,22,08,32,18.30
2015,08,22,08,33,18.30
2015,08,22,08,34,18.30
2015,08,22,08,35,18.30
2015,08,22,08,36,18.20
2015,08,22,08,37,18.20
2015,08,22,08,38,18.10
2015,08,22,08,39,18.10
2015,08,22,08,40,18.10
2015,08,22,08,41,18.10
2015,08,22,08,42,18.10
2015,08,22,08,43,18.10
2015,08,22,08,44,18.10
2015,08,22,08,45,18.10
2015,08,22,08,46,18.10
2015,08,22,08,47,18.20
2015,08,22,08,48,18.20
2015,08,22,08,49,18.20
2015,08,22,08,50,18.30
2015,08,22,08,51,18.30
2015,08,22,08,52,18.30
2015,08,22,08,53,18.30
2015,08,22,08,54,18.30
2015,08,22,08,55,18.30
2015,08,22,08,56,18.30
2015,08,22,08,57,18.30
2015,08,22,08,58,18.30
2015,08,22,08,59,18.40
2015,08,22,09,00,18.40
2015,08,22,09,01,18.50
2015,08,22,09,02,18.50
2015,08,22,09,03,18.50
2015,08,22,09,04,18.60
2015,08,22,09,05,18.60
2015,08,22,09,06,18.60
2015,08,22,09,07,18.60
2015,08,22,09,08,18.60
2015,08,22,09,09,18.60
2015,08,22,09,10,18.60
2015,08,22,09,11,18.60
2015,08,22,09,12,18.70
2015,08,22,09,13,18.80
2015,08,22,09,14,18.90
2015,08,22,09,15,19.00
2015,08,22,09,16,19.10
2015,08,22,09,17,19.10
2015,08,22,09,18,19.20
2015,08,22,09,19,19.20
2015,08,22,09,20,19.30
2015,08,22,09,21,19.50
2015,08,22,09,22,19.60
2015,08,22,09,23,19.70
2015,08,22,09,24,19.70
2015,08,22,09,25,19.70
2015,08,22,09,26,19.80
2015,08,22,09,27,19.80
2015,08,22,09,28,19.80
2015,08,22,09,29,19.80
2015,08,22,09,30,19.80
2015,08,22,09,31,19.80
2015,08,22,09,32,19.80
2015,08,22,09,33,19.80
2015,08,22,09,34,19.80
2015,08,22,09,35,19.80
2015,08,22,09,36,19.90
2015,08,22,09,37,19.90
2015,08,22,09,38,19.90
2015,08,22,09,39,19.80
2015,08,22,09,40,19.80
2015,08,22,09,41,19.80
2015,08,22,09,42,19.80
2015,08,22,09,43,19.80
2015,08,22,09,44,19.90
2015,08,22,09,45,19.90
2015,08,22,09,46,19.90
2015,08,22,09,47,19.80
2015,08,22,09,48,19.70
2015,08,22,09,49,19.70
2015,08,22,09,50,19.70
2015,08,22,09,51,19.60
2015,08,22,09,52,19.70
2015,08,22,09,53,19.70
2015,08,22,09,54,19.70
2015,08,22,09,55,19.70
2015,08,22,09,56,19.80
2015,08,22,09,57,19.80
2015,08,22,09,58,19.90
2015,08,22,09,59,19.90
2015,08,22,10,00,19.90
2015,08,22,10,01,19.90
2015,08,22,10,02,19.90
2015,08,22,10,03,20.00
2015,08,22,10,04,20.10
2015,08,22,10,05,20.10
2015,08,22,10,06,20.20
2015,08,22,10,07,20.20
2015,08,22,10,08,20.40
2015,08,22,10,09,20.40
2015,08,22,10,10,20.40
2015,08,22,10,11,20.40
2015,08,22,10,12,20.40
2015,08,22,10,13,20.40
2015,08,22,10,14,20.30
2015,08,22,10,15,20.30
2015,08,22,10,16,20.30
2015,08,22,10,17,20.40
2015,08,22,10,18,20.50
2015,08,22,10,19,20.50
2015,08,22,10,20,20.50
2015,08,22,10,21,20.60
2015,08,22,10,22,20.70
2015,08,22,10,23,20.80
2015,08,22,10,24,20.90
2015,08,22,10,25,20.90
2015,08,22,10,26,20.90
2015,08,22,10,27,20.90
2015,08,22,10,28,20.80
2015,08,22,10,29,20.70
2015,08,22,10,30,20.70
2015,08,22,10,31,20.60
2015,08,22,10,32,20.70
2015,08,22,10,33,20.80
2015,08,22,10,34,20.90
2015,08,22,10,35,21.00
2015,08,22,10,36,21.10
2015,08,22,10,37,21.30
2015,08,22,10,38,21.30
2015,08,22,10,39,21.30
2015,08,22,10,40,21.20
2015,08,22,10,41,21.20
2015,08,22,10,42,21.10
2015,08,22,10,43,21.10
2015,08,22,10,44,21.20
2015,08,22,10,45,21.20
2015,08,22,10,46,21.30
2015,08,22,10,47,21.30
2015,08,22,10,48,21.30
2015,08,22,10,49,21.30
2015,08,22,10,50,21.30
2015,08,22,10,51,21.30
2015,08,22,10,52,21.30
2015,08,22,10,53,21.30
2015,08,22,10,54,21.30
2015,08,22,10,55,21.30
2015,08,22,10,56,21.30
2015,08,22,10,57,21.30
2015,08,22,10,58,21.50
2015,08,22,10,59,21.60
2015,08,22,11,00,21.60
2015,08,22,11,01,21.70
2015,08,22,11,02,21.80
2015,08,22,11,03,21.80
2015,08,22,11,04,21.90
2015,08,22,11,05,21.80
2015,08,22,11,06,21.70
2015,08,22,11,07,21.70
2015,08,22,11,08,21.60
2015,08,22,11,09,21.60
2015,08,22,11,10,21.60
2015,08,22,11,11,21.60
2015,08,22,11,12,21.70
2015,08,22,11,13,21.70
2015,08,22,11,14,21.80
2015,08,22,11,15,21.70
2015,08,22,11,16,21.70
2015,08,22,11,17,21.90
2015,08,22,11,18,22.00
2015,08,22,11,19,22.10
2015,08,22,11,20,22.20
2015,08,22,11,21,22.20
2015,08,22,11,22,22.20
2015,08,22,11,23,22.20
2015,08,22,11,24,22.10
2015,08,22,11,25,22.00
2015,08,22,11,26,22.00
2015,08,22,11,27,22.00
2015,08,22,11,28,22.00
2015,08,22,11,29,22.00
2015,08,22,11,30,21.90
2015,08,22,11,31,21.80
2015,08,22,11,32,21.90
2015,08,22,11,33,21.90
2015,08,22,11,34,21.90
2015,08,22,11,35,21.90
2015,08,22,11,36,21.90
2015,08,22,11,37,21.90
2015,08,22,11,38,21.90
2015,08,22,11,39,21.90
2015,08,22,11,40,22.00
2015,08,22,11,41,22.00
2015,08,22,11,42,21.90
2015,08,22,11,43,21.90
2015,08,22,11,44,22.00
2015,08,22,11,45,22.10
2015,08,22,11,46,22.20
2015,08,22,11,47,22.30
2015,08,22,11,48,22.40
2015,08,22,11,49,22.40
2015,08,22,11,50,22.40
2015,08,22,11,51,22.50
2015,08,22,11,52,22.40
2015,08,22,11,53,22.50
2015,08,22,11,54,22.50
2015,08,22,11,55,22.60
2015,08,22,11,56,22.60
2015,08,22,11,57,22.70
2015,08,22,11,58,22.60
2015,08,22,11,59,22.60
2015,08,22,12,00,22.60
2015,08,22,12,01,22.50
2015,08,22,12,02,22.60
2015,08,22,12,03,22.60
2015,08,22,12,04,22.50
2015,08,22,12,05,22.50
2015,08,22,12,06,22.40
2015,08,22,12,07,22.40
2015,08,22,12,08,22.50
2015,08,22,12,09,22.50
2015,08,22,12,10,22.50
2015,08,22,12,11,22.50
2015,08,22,12,12,22.50
2015,08,22,12,13,22.60
2015,08,22,12,14,22.60
2015,08,22,12,15,22.60
2015,08,22,12,16,22.70
2015,08,22,12,17,22.70
2015,08,22,12,18,22.80
2015,08,22,12,19,22.80
2015,08,22,12,20,22.70
2015,08,22,12,21,22.70
2015,08,22,12,22,22.70
2015,08,22,12,23,22.80
2015,08,22,12,24,22.70
2015,08,22,12,25,22.60
2015,08,22,12,26,22.50
2015,08,22,12,27,22.30
2015,08,22,12,28,22.20
2015,08,22,12,29,22.20
2015,08,22,12,30,22.20
2015,08,22,12,31,22.30
2015,08,22,12,32,22.30
2015,08,22,12,33,22.30
2015,08,22,12,34,22.30
2015,08,22,12,35,22.00
2015,08,22,12,36,21.70
2015,08,22,12,37,21.50
2015,08,22,12,38,21.40
2015,08,22,12,39,21.50
2015,08,22,12,40,21.50
2015,08,22,12,41,21.30
2015,08,22,12,42,21.20
2015,08,22,12,43,21.20
2015,08,22,12,44,21.20
2015,08,22,12,45,21.20
2015,08,22,12,46,21.30
2015,08,22,12,47,21.40
2015,08,22,12,48,21.50
2015,08,22,12,49,21.70
2015,08,22,12,50,21.90
2015,08,22,12,51,22.00
2015,08,22,12,52,22.20
2015,08,22,12,53,22.30
2015,08,22,12,54,22.30
2015,08,22,12,55,22.30
2015,08,22,12,56,22.30
2015,08,22,12,57,22.30
2015,08,22,12,58,22.30
2015,08,22,12,59,22.40
2015,08,22,13,00,22.50
2015,08,22,13,01,22.60
2015,08,22,13,02,22.70
2015,08,22,13,03,22.80
2015,08,22,13,04,22.90
2015,08,22,13,05,22.70
2015,08,22,13,06,22.60
2015,08,22,13,07,22.60
2015,08,22,13,08,22.60
2015,08,22,13,09,22.60
2015,08,22,13,10,22.70
2015,08,22,13,11,22.80
2015,08,22,13,12,22.90
2015,08,22,13,13,22.90
2015,08,22,13,14,22.90
2015,08,22,13,15,22.90
2015,08,22,13,16,22.90
2015,08,22,13,17,22.90
2015,08,22,13,18,22.90
2015,08,22,13,19,23.00
2015,08,22,13,20,23.00
2015,08,22,13,21,22.90
2015,08,22,13,22,22.90
2015,08,22,13,23,22.80
2015,08,22,13,24,22.70
2015,08,22,13,25,22.60
2015,08,22,13,26,22.60
2015,08,22,13,27,22.60
2015,08,22,13,28,22.70
2015,08,22,13,29,22.70
2015,08,22,13,30,22.80
2015,08,22,13,31,22.80
2015,08,22,13,32,22.80
2015,08,22,13,33,22.70
2015,08,22,13,34,22.70
2015,08,22,13,35,22.60
2015,08,22,13,36,22.60
2015,08,22,13,37,22.60
2015,08,22,13,38,22.60
2015,08,22,13,39,22.60
2015,08,22,13,40,22.70
2015,08,22,13,41,22.80
2015,08,22,13,42,22.80
2015,08,22,13,43,22.90
2015,08,22,13,44,22.90
2015,08,22,13,45,22.80
2015,08,22,13,46,22.60
2015,08,22,13,47,22.40
2015,08,22,13,48,22.30
2015,08,22,13,49,22.20
2015,08,22,13,50,22.20
2015,08,22,13,51,22.10
2015,08,22,13,52,22.10
2015,08,22,13,53,22.10
2015,08,22,13,54,22.10
2015,08,22,13,55,22.20
2015,08,22,13,56,22.30
2015,08,22,13,57,22.40
2015,08,22,13,58,22.50
2015,08,22,13,59,22.50
2015,08,22,14,00,22.50
2015,08,22,14,01,22.50
2015,08,22,14,02,22.40
2015,08,22,14,03,22.30
2015,08,22,14,04,22.20
2015,08,22,14,05,22.00
2015,08,22,14,06,21.90
2015,08,22,14,07,21.90
2015,08,22,14,08,21.60
2015,08,22,14,09,21.40
2015,08,22,14,10,21.20
2015,08,22,14,11,21.10
2015,08,22,14,12,20.80
2015,08,22,14,13,20.70
2015,08,22,14,14,20.80
2015,08,22,14,15,20.80
2015,08,22,14,16,20.90
2015,08,22,14,17,20.90
2015,08,22,14,18,20.90
2015,08,22,14,19,20.90
2015,08,22,14,20,20.90
2015,08,22,14,21,20.90
2015,08,22,14,22,20.90
2015,08,22,14,23,20.70
2015,08,22,14,24,20.50
2015,08,22,14,25,20.20
2015,08,22,14,26,20.00
2015,08,22,14,27,19.80
2015,08,22,14,28,19.70
2015,08,22,14,29,19.70
2015,08,22,14,30,19.80
2015,08,22,14,31,19.90
2015,08,22,14,32,19.90
2015,08,22,14,33,20.10
2015,08,22,14,34,20.20
2015,08,22,14,35,20.30
2015,08,22,14,36,20.40
2015,08,22,14,37,20.40
2015,08,22,14,38,20.40
2015,08,22,14,39,20.40
2015,08,22,14,40,20.40
2015,08,22,14,41,20.40
2015,08,22,14,42,20.40
2015,08,22,14,43,20.40
2015,08,22,14,44,20.40
2015,08,22,14,45,20.40
2015,08,22,14,46,20.30
2015,08,22,14,47,20.40
2015,08,22,14,48,20.50
2015,08,22,14,49,20.50
2015,08,22,14,50,20.60
2015,08,22,14,51,20.70
2015,08,22,14,52,20.70
2015,08,22,14,53,20.80
2015,08,22,14,54,20.90
2015,08,22,14,55,21.00
2015,08,22,14,56,21.00
2015,08,22,14,57,21.00
2015,08,22,14,58,21.00
2015,08,22,14,59,21.00
2015,08,22,15,00,20.90
2015,08,22,15,01,20.80
2015,08,22,15,02,20.80
2015,08,22,15,03,20.90
2015,08,22,15,04,20.90
2015,08,22,15,05,20.90
2015,08,22,15,06,20.90
2015,08,22,15,07,21.00
2015,08,22,15,08,21.10
2015,08,22,15,09,21.20
2015,08,22,15,10,21.20
2015,08,22,15,11,21.20
2015,08,22,15,12,21.20
2015,08,22,15,13,21.20
2015,08,22,15,14,21.20
2015,08,22,15,15,21.20
2015,08,22,15,16,21.10
2015,08,22,15,17,21.00
2015,08,22,15,18,21.00
2015,08,22,15,19,20.90
2015,08,22,15,20,20.90
2015,08,22,15,21,20.90
2015,08,22,15,22,20.90
2015,08,22,15,23,21.00
2015,08,22,15,24,21.10
2015,08,22,15,25,21.30
2015,08,22,15,26,21.50
2015,08,22,15,27,21.60
2015,08,22,15,28,21.70
2015,08,22,15,29,21.80
2015,08,22,15,30,22.00
2015,08,22,15,31,22.10
2015,08,22,15,32,22.20
2015,08,22,15,33,22.40
2015,08,22,15,34,22.50
2015,08,22,15,35,22.50
2015,08,22,15,36,22.60
2015,08,22,15,37,22.60
2015,08,22,15,38,22.60
2015,08,22,15,39,22.70
2015,08,22,15,40,22.70
2015,08,22,15,41,22.70
2015,08,22,15,42,22.70
2015,08,22,15,43,22.70
2015,08,22,15,44,22.80
2015,08,22,15,45,22.80
2015,08,22,15,46,22.80
2015,08,22,15,47,22.80
2015,08,22,15,48,22.90
2015,08,22,15,49,22.90
2015,08,22,15,50,22.80
2015,08,22,15,51,22.70
2015,08,22,15,52,22.70
2015,08,22,15,53,22.70
2015,08,22,15,54,22.70
2015,08,22,15,55,22.70
2015,08,22,15,56,22.70
2015,08,22,15,57,22.80
2015,08,22,15,58,22.80
2015,08,22,15,59,22.80
2015,08,22,16,00,22.70
2015,08,22,16,01,22.60
2015,08,22,16,02,22.70
2015,08,22,16,03,22.70
2015,08,22,16,04,22.80
2015,08,22,16,05,22.80
2015,08,22,16,06,22.80
2015,08,22,16,07,22.80
2015,08,22,16,08,22.80
2015,08,22,16,09,22.80
2015,08,22,16,10,22.70
2015,08,22,16,11,22.60
2015,08,22,16,12,22.60
2015,08,22,16,13,22.50
2015,08,22,16,14,22.50
2015,08,22,16,15,22.50
2015,08,22,16,16,22.50
2015,08,22,16,17,22.30
2015,08,22,16,18,22.20
2015,08,22,16,19,22.20
2015,08,22,16,20,22.20
2015,08,22,16,21,22.30
2015,08,22,16,22,22.20
2015,08,22,16,23,22.20
2015,08,22,16,24,22.20
2015,08,22,16,25,22.10
2015,08,22,16,26,22.10
2015,08,22,16,27,22.20
2015,08,22,16,28,22.20
2015,08,22,16,29,22.20
2015,08,22,16,30,22.20
2015,08,22,16,31,22.20
2015,08,22,16,32,22.20
2015,08,22,16,33,22.10
2015,08,22,16,34,22.00
2015,08,22,16,35,21.90
2015,08,22,16,36,21.90
2015,08,22,16,37,21.90
2015,08,22,16,38,21.90
2015,08,22,16,39,21.90
2015,08,22,16,40,22.00
2015,08,22,16,41,22.00
2015,08,22,16,42,22.20
2015,08,22,16,43,22.20
2015,08,22,16,44,22.30
2015,08,22,16,45,22.30
2015,08,22,16,46,22.20
2015,08,22,16,47,22.20
2015,08,22,16,48,22.10
2015,08,22,16,49,22.10
2015,08,22,16,50,22.10
2015,08,22,16,51,22.10
2015,08,22,16,52,22.10
2015,08,22,16,53,22.00
2015,08,22,16,54,22.00
2015,08,22,16,55,21.80
2015,08,22,16,56,21.60
2015,08,22,16,57,21.40
2015,08,22,16,58,21.20
2015,08,22,16,59,21.10
2015,08,22,17,00,21.10
2015,08,22,17,01,21.10
2015,08,22,17,02,21.10
2015,08,22,17,03,21.10
2015,08,22,17,04,21.10
2015,08,22,17,05,21.10
2015,08,22,17,06,21.00
2015,08,22,17,07,21.00
2015,08,22,17,08,21.10
2015,08,22,17,09,21.10
2015,08,22,17,10,21.20
2015,08,22,17,11,21.20
2015,08,22,17,12,21.20
2015,08,22,17,13,21.20
2015,08,22,17,14,21.20
2015,08,22,17,15,21.30
2015,08,22,17,16,21.30
2015,08,22,17,17,21.30
2015,08,22,17,18,21.40
2015,08,22,17,19,21.50